This is the latest recevied weather packets stored in our database for station/object SP3WRO-2. If no packets are shown the sender has not sent any weather packets the latest 10 day(s).
| Time | Temp. | Humidity | Pressure | Rain* | Wind** | Luminosity | Snow |
|---|---|---|---|---|---|---|---|
| 1787627320 | 8.33° C | 98% | 1017.1 hPa | 4.83 mm | - | - | - |
| 1787626418 | 8.89° C | 98% | 1017.3 hPa | 4.83 mm | - | - | - |
| 1787625517 | 8.89° C | 98% | 1017.2 hPa | 4.83 mm | - | - | - |
| 1787624616 | 8.33° C | 98% | 1017.3 hPa | 4.83 mm | - | - | - |
| 1787623715 | 8.89° C | 98% | 1017.5 hPa | 4.83 mm | - | - | - |
| 1787621911 | 9.44° C | 98% | 1017.3 hPa | 4.83 mm | - | - | - |
| 1787621010 | 9.44° C | 98% | 1017.4 hPa | 4.83 mm | - | - | - |
| 1787620109 | 9.44° C | 98% | 1017.5 hPa | 4.83 mm | - | - | - |
| 1787618308 | 10° C | 98% | 1017.8 hPa | 4.83 mm | - | - | - |
| 1787617406 | 10° C | 98% | 1017.8 hPa | 4.83 mm | - | - | - |
| 1787616505 | 10° C | 98% | 1018 hPa | 4.83 mm | - | - | - |
| 1787615605 | 10.56° C | 98% | 1018 hPa | 4.83 mm | - | - | - |
| 1787613801 | 10.56° C | 98% | 1018 hPa | 4.83 mm | - | - | - |
| 1787612900 | 10.56° C | 98% | 1018 hPa | 4.83 mm | - | - | - |
| 1787611999 | 11.11° C | 98% | 1018.1 hPa | 4.57 mm | - | - | - |
| 1787611098 | 10.56° C | 97% | 1018 hPa | 4.57 mm | - | - | - |
| 1787610196 | 11.11° C | 97% | 1018 hPa | 4.57 mm | - | - | - |
| 1787609296 | 11.11° C | 97% | 1017.9 hPa | 4.57 mm | - | - | - |
| 1787608392 | 11.11° C | 97% | 1017.9 hPa | 4.57 mm | - | - | - |
| 1787607491 | 11.11° C | 97% | 1017.7 hPa | 4.57 mm | - | - | - |
| 1787606590 | 11.67° C | 97% | 1017.7 hPa | 4.57 mm | - | - | - |
| 1787605689 | 11.67° C | 97% | 1017.6 hPa | 4.57 mm | - | - | - |
| 1787604788 | 12.22° C | 97% | 1017.5 hPa | 4.57 mm | - | - | - |
| 1787603886 | 12.22° C | 97% | 1017.5 hPa | 4.57 mm | - | - | - |
| 1787602986 | 12.78° C | 97% | 1017.5 hPa | 4.57 mm | - | - | - |
* Rain latest 24 hours (hover to see other rain measurements)
** Current wind speed in m/s (hover to see current wind gust speed)